Tracking 19908 objects as of 18-Oct-2019
HD Live streaming from Space Station
objects crossing your sky now

COSMOS 1823 DEB

Track COSMOS 1823 DEB now!
10-day predictions


NORAD ID: 18757
Int'l Code: 1987-020AJ
Perigee: 1,153.8 km
Apogee: 1,272.9 km
Inclination: 73.7 °
Period: 109.6 minutes
Semi major axis: 7584 km
RCS: 0.0664 m2 (small)
Launch date: February 20, 1987
Source: Commonwealth of Independent States (former USSR) (CIS)
Launch site: PLESETSK MISSILE AND SPACE COMPLEX (PKMTR)

Note: This is SATELLITE DEBRIS
aabbcc
Your satellite tracking list
Your tracking list is empty




NASA's NSSDC Master Catalog

Two Line Element Set (TLE):
1 18757U 87020AJ  19290.39448082  .00001270  00000-0  34303-2 0  9999
2 18757  73.7241  58.6087 0078516  14.5077  15.0690 13.14396904487021
Source of the keplerian elements: AFSPC